User: anonymous   Login
Location: Unspecified
(0.0000°N, 0.0000°E)
Time: 21:30:26
(UTC+00:00)
Language:

STARLINK-34142 - Orbit

View from above orbital plane
View from above orbital plane
View from above satellite
View from above satellite

Ground track
Ground track

The orbit is defined by the following mean orbital elements,

1 63957U          26145.25521470 +.00000000 +00000-0 +55491-3 0 00004
2 63957  43.0010 104.0260 0001014 270.6230  89.4506 15.27586901    05
Epoch (UTC): 25 May 2026 06:07:30
Eccentricity: 0.0001014
inclination: 43.0010°
perigee height: 482 km
apogee height: 484 km
right ascension of ascending node: 104.0260°
argument of perigee: 270.6230°
revolutions per day: 15.27586901
mean anomaly at epoch: 89.4506°

The dashed part of the orbit path shows where the satellite is in the earth's shadow,  

DLR